Location: Izdebno
(52.6670°N, 16.2170°E)
Time: 19:07:40
(UTC+02:00)

SR - Pass Details

Date: 03 March 2024
Orbit: 577 x 862 km, 66.7° (Epoch: 20 April)

Event Time Altitude Azimuth Distance (km) Brightness Sun altitude
Rises 20:17:24 0° 319° (NW) 3,284 ? -24.4°
Reaches altitude 10° 20:20:05 10° 327° (NNW) 2,305 ? -24.8°
Enters shadow 20:24:46 38° 30° (NNE) 1,099 ? -25.5°
